Regional Weather Roundup
Issued by NWS

Home | Current Version | Previous Version | Graphics & Text | Print | Product List | Glossary On
Versions: 1 2 3 4 5 6 7 8 9 10 11 12 13 14 15 16 17 18 19 20 21 22 23 24 25 26 27 28 29 30 31 32 33 34 35 36 37 38 39 40 41 42 43 44 45 46 47 48 49 50
000
ASUS45 KTFX 020804
RWRMT
MONTANA REGIONAL WEATHER ROUNDUP
NATIONAL WEATHER SERVICE GREAT FALLS MT
200 AM MDT WED SEP 02 2015

NOTE: "FAIR" INDICATES FEW OR NO CLOUDS BELOW 12000 FEET WITH NO
SIGNIFICANT WEATHER AND/OR OBSTRUCTIONS TO VISIBILITY.

MTZ001>007-043-020900-
WEST OF THE DIVIDE

CITY           SKY/WX    TMP DP  RH WIND       PRES   REMARKS
KALISPELL      CLOUDY    53  38  56 E3        29.75S
MISSOULA       PTCLDY    54  39  57 SE7       29.78F
BUTTE          CLEAR     48  35  60 SE3       29.91S
MULLAN PASS    CLOUDY    51  29  42 CALM      29.89S
DEER LODGE       N/A     46  36  66 CALM      29.89S
EUREKA           N/A     54  43  66 SE6       29.74S
HAMILTON         N/A     55  41  58 N2        29.79S
LIBBY            N/A     54  37  54 CALM      29.74S
$$

MTZ008-052>055-020900-
SOUTHWEST MONTANA

CITY           SKY/WX    TMP DP  RH WIND       PRES   REMARKS
BOZEMAN        PTCLDY    57  37  47 E3        29.83S
DILLON         CLEAR     61  25  25 S8        29.86F
W YELLOWSTONE  PTCLDY    41  27  56 CALM      30.04F
$$

MTZ009-010-012-014-046-048-049-054-020900-
EAST SLOPES AND CENTRAL MONTANA

CITY           SKY/WX    TMP DP  RH WIND       PRES   REMARKS
CUT BANK       CLOUDY    58  31  35 VRB3      29.76S
GREAT FALLS    PTCLDY    53  32  44 W6        29.74F
HELENA         CLEAR     60  35  39 S3        29.78S
$$

MTZ011-013-016-021-045-047-050-051-020900-
NORTH CENTRAL MONTANA

CITY           SKY/WX    TMP DP  RH WIND       PRES   REMARKS
HAVRE          MOCLDY    54  41  61 SW3       29.72S
LEWISTOWN      CLEAR     64  38  38 E9        29.76F
N BAR RANCH      N/A     54  39  58 NW7       29.83F
CHINOOK          N/A     57  37  47 NE5       29.71F
FORT BENTON      N/A     63  36  36 N6        29.72S
$$

MTZ017>020-022>027-061-062-020900-
NORTHEAST MONTANA

CITY           SKY/WX    TMP DP  RH WIND       PRES   REMARKS
GLASGOW        CLEAR     60  41  49 E14       29.74F
JORDAN           N/A     51  34  52 CALM      29.76F
SIDNEY         CLEAR     55  39  54 NW3       29.77S
WOLF POINT     CLEAR     56  44  64 E6        29.76F
PLENTYWOOD       N/A     63  43  48 S3        29.79R
POPLAR           N/A     57  43  58 N7        29.77F
$$

MTZ028>42-056>058-020900-
SOUTHCENTRAL AND SOUTHEAST MONTANA

CITY           SKY/WX    TMP DP  RH WIND       PRES   REMARKS
BAKER          CLEAR     58  51  78 E7        29.82F
BILLINGS       PTCLDY    70  32  24 SW12      29.78F
LIVINGSTON     PTCLDY    64  26  23 SE3       29.83F
MILES CITY     CLEAR     63  40  42 NE7       29.76F
FORSYTH          N/A     64  34  32 SE3       29.73F
$$

REGIONAL REPORTS...DAKOTAS

CITY           SKY/WX    TMP DP  RH WIND       PRES   REMARKS
WILLISTON      CLEAR     55  44  66 N3        29.78S
MINOT          CLEAR     64  59  83 CALM      29.77S
DICKINSON      CLEAR     58  54  86 CALM      29.80S
BISMARCK       CLEAR     67  64  90 E8        29.78F
GRAND FORKS    CLEAR     65  60  84 SE6       29.81S
FARGO          CLEAR     73  69  87 S12       29.83R
BUFFALO SD       N/A     66  54  65 SE5       29.79R
RAPID CITY     CLEAR     57  51  80 NW7       29.86F
$$

REGIONAL REPORTS...WYOMING/IDAHO/WASHINGTON

CITY           SKY/WX    TMP DP  RH WIND       PRES   REMARKS
GILLETTE       PTCLDY    75  40  28 SW16      29.87F
SHERIDAN       PTCLDY    57  39  51 CALM      29.84S
BUFFALO WY     PTCLDY    76  36  23 W17       29.91F
CODY           CLEAR     68  28  22 S3        29.92S
YELLOWSTONE LA   N/A     41  30  65 NW3       30.16F
IDAHO FALLS    CLEAR     62  43  49 S5        29.90S
SALMON         PTCLDY    54  36  50 CALM      29.80S
BOISE          PTCLDY    70  38  31 SE9       29.75S
SPOKANE        CLOUDY    63  42  46 S10       29.73F
$$

REGIONAL REPORTS...ALBERTA

CITY           SKY/WX    TMP DP  RH WIND       PRES   REMARKS
$$

REGIONAL REPORTS...SASKATCHEWAN

CITY           SKY/WX    TMP DP  RH WIND       PRES   REMARKS
$$


USA.gov is the U.S. government's official web portal to all federal, state and local government web resources and services.